Notices

What's New in latest Release from April 7th, 2021:

- Updated Glossary, including Speed of Maximum Gust, and Total Hourly Precipitation

- Updated national and regional climate services offices contacts and prices information

- Addition of station inventory lists for 1981-2010, 1971-2000, and 1961-1990 Normals.

If you haven't already, please take our survey and provide feedback about our website: https://eccc.sondage-survey.ca/f/LanguageSelection.aspx?s=442ca660-fcf1-47c0-95a9-59707d6fd709

Hourly Data Report for September 08, 2003

TORONTO CITY
ONTARIO

43°40'00.000" N
79°24'00.000" W
112.50 m
6158355
71508
XTO

Download Data

Hourly Data (September 2003)
Hourly Data Report for September 8, 2003
TIME
LST
Temp Definition
°C
Dew Point Definition
°C
Rel Hum Definition
%
Precip. Amount Definition
mm

Wind Dir Definition
10's deg

Wind Spd Definition
km/h
Visibility Definition
km
Stn Press Definition
kPa
Hmdx Definition


Wind Chill Definition


Weather Definition


00:00 18.5 13.0 70   LegendMM LegendMM LegendMM 100.58     LegendNANA
01:00 17.8 12.5 71   LegendMM LegendMM LegendMM 100.56     LegendNANA
02:00 17.5 11.8 69   LegendMM LegendMM LegendMM 100.60     LegendNANA
03:00 16.9 11.1 69   LegendMM LegendMM LegendMM 100.61     LegendNANA
04:00 16.0 10.8 71   LegendMM LegendMM LegendMM 100.64     LegendNANA
05:00 15.6 10.7 73   LegendMM LegendMM LegendMM 100.68     LegendNANA
06:00 15.4 10.4 72   LegendMM LegendMM LegendMM 100.72     LegendNANA
07:00 15.8 10.6 71   LegendMM LegendMM LegendMM 100.77     LegendNANA
08:00 17.7 10.2 61   LegendMM LegendMM LegendMM 100.80     LegendNANA
09:00 18.7 9.3 54   LegendMM LegendMM LegendMM 100.84     LegendNANA
10:00 19.9 9.4 51   LegendMM LegendMM LegendMM 100.88     LegendNANA
11:00 20.0 8.5 47   LegendMM LegendMM LegendMM 100.86     LegendNANA
12:00 21.6 8.8 44   LegendMM LegendMM LegendMM 100.85     LegendNANA
13:00 21.3 10.9 51   LegendMM LegendMM LegendMM 100.83     LegendNANA
14:00 21.2 10.8 51   LegendMM LegendMM LegendMM 100.77     LegendNANA
15:00 20.4 10.2 52   LegendMM LegendMM LegendMM 100.75     LegendNANA
16:00 20.2 11.3 57   LegendMM LegendMM LegendMM 100.76     LegendNANA
17:00 19.4 11.8 61   LegendMM LegendMM LegendMM 100.77     LegendNANA
18:00 19.0 11.8 63   LegendMM LegendMM LegendMM 100.80     LegendNANA
19:00 18.5 12.0 66   LegendMM LegendMM LegendMM 100.81     LegendNANA
20:00 18.1 11.6 66   LegendMM LegendMM LegendMM 100.85     LegendNANA
21:00 18.1 12.6 70   LegendMM LegendMM LegendMM 100.88     LegendNANA
22:00 17.5 13.1 75   LegendMM LegendMM LegendMM 100.93     LegendNANA
23:00 17.1 13.0 77   LegendMM LegendMM LegendMM 100.95     LegendNANA

Notes on Data Quality.

Legend

  • E = Estimated
  • M = Missing
  • NA = Not Available*
  • [empty] = Indicates an unobserved value
Date modified: